GFSSW_sfc_wetblb_009.txt.gz
Wetbulb
57.68 57.62 57.51 58.49 58.48 58.11 58.10 57.61 57.48 57.59 57.62 57.50 57.16 56.62 55.67 55.65 54.20 56.08 54.13 58.00 58.93 61.46 58.47 58.09 56.16 56.45 55.94 53.65 53.37 53.97 48.17 45.98 48.28 50.36 52.30 58.46 56.86 57.52 58.68 55.75 57.33 60.67 62.73 64.58 67.67
58.01 58.09 58.33 58.50 57.97 57.71 57.52 57.17 56.81 57.14 57.58 57.08 56.77 55.81 55.52 54.78 54.01 54.47 60.17 62.08 60.48 61.21 56.69 54.90 53.62 54.02 52.17 52.40 51.85 49.64 46.94 48.19 52.92 55.29 54.81 55.64 56.21 56.14 56.15 55.93 57.40 60.28 65.30 67.81 67.72
57.68 57.86 58.11 57.78 57.79 57.29 57.07 56.57 56.41 56.85 57.22 56.78 55.85 55.61 55.37 54.72 54.08 57.19 62.66 60.91 60.60 61.31 57.47 55.85 54.92 53.21 51.02 52.13 51.07 49.90 47.99 52.42 53.64 56.07 55.84 54.43 54.13 57.20 54.44 55.38 58.63 60.89 63.02 64.21 65.49
57.28 57.47 57.51 57.49 57.33 57.03 56.52 55.69 56.18 56.78 56.83 55.77 55.08 54.98 54.77 55.29 49.01 60.12 63.79 61.27 60.95 60.70 57.66 54.32 53.32 51.19 50.52 48.75 51.32 48.94 51.29 51.56 51.15 53.72 52.99 52.53 54.27 55.57 51.99 52.08 58.12 62.80 64.60 64.49 64.82
57.16 56.75 57.05 56.80 56.56 56.59 55.89 55.37 55.69 56.41 56.16 55.04 54.47 54.05 54.79 54.38 55.52 63.94 61.95 61.61 59.02 58.05 55.57 53.44 52.15 51.77 48.53 49.76 50.24 49.49 50.39 50.49 49.66 50.50 53.63 54.87 53.50 53.81 55.38 59.12 62.19 64.13 64.15 63.38 64.35
56.86 56.45 56.51 56.49 56.11 55.90 55.55 55.24 55.30 55.73 54.89 53.78 53.61 53.31 54.82 50.60 59.44 63.39 60.97 59.00 58.22 57.82 54.80 54.94 53.27 53.35 50.77 50.24 50.18 51.49 50.93 48.03 51.31 52.08 54.57 54.34 53.46 52.51 56.75 60.55 61.21 62.25 61.72 61.90 62.19
56.80 56.17 55.99 56.05 55.77 55.50 55.50 55.12 55.32 54.58 53.29 53.09 52.83 54.79 53.50 53.91 60.15 63.36 60.51 57.47 58.30 57.27 54.01 55.80 55.86 52.72 53.41 50.88 52.44 49.88 46.59 46.80 51.01 52.10 52.93 52.82 49.33 50.76 57.88 59.77 58.83 59.70 60.07 60.58 60.49
56.93 55.95 55.56 55.34 54.79 54.66 55.07 54.61 53.69 52.93 52.53 52.33 53.16 55.69 52.82 60.41 61.52 59.59 61.58 59.08 59.99 59.40 57.42 57.63 57.79 55.10 52.91 52.40 50.03 47.60 48.33 46.19 50.86 51.24 49.85 49.41 45.53 51.86 57.67 58.38 57.78 58.83 59.79 60.57 61.14
56.63 55.63 55.19 54.54 54.13 54.03 54.03 53.23 52.72 52.01 51.65 52.59 54.13 54.93 53.55 58.79 56.10 58.83 59.94 55.79 57.15 57.96 57.87 56.10 55.55 52.71 52.39 47.94 45.99 46.48 41.68 44.63 46.51 50.08 47.87 48.13 46.54 52.44 56.22 57.57 57.53 58.99 60.06 60.46 60.75
56.36 55.33 55.01 54.24 53.87 54.03 53.27 52.28 52.20 52.07 53.63 55.40 56.51 53.14 56.45 53.02 57.09 56.30 58.84 56.41 55.17 55.82 52.89 52.67 52.51 49.32 49.01 46.21 39.75 42.55 43.47 44.75 44.29 47.26 47.92 47.40 48.45 52.14 54.87 55.99 57.20 58.63 59.80 59.91 59.99
56.06 55.49 54.93 54.24 54.05 52.96 52.32 54.86 53.20 53.10 53.94 53.82 54.00 53.45 53.63 56.76 57.85 55.83 56.39 55.39 55.43 54.24 48.31 51.08 47.55 45.41 47.06 47.81 47.68 46.68 44.44 43.74 46.27 48.23 47.03 47.98 48.16 50.51 54.41 54.94 55.40 56.99 58.47 59.18 60.03
55.62 55.15 54.64 54.44 54.49 52.60 54.23 53.84 57.57 59.40 53.61 54.98 55.03 54.88 56.21 56.58 51.84 53.82 56.86 52.23 51.74 48.05 49.82 48.13 45.31 48.73 49.75 49.17 47.05 46.08 44.65 45.04 47.32 49.04 49.97 48.67 48.92 51.47 53.54 54.54 56.09 56.23 57.13 58.33 59.78
54.99 55.01 54.54 54.10 52.94 51.98 54.34 55.49 62.52 61.76 55.01 53.72 54.97 53.94 54.13 55.79 51.51 52.05 54.57 52.90 50.17 47.71 47.94 46.62 47.88 49.97 48.38 46.84 45.62 46.09 44.78 45.67 45.76 49.16 50.51 49.05 48.13 50.21 52.84 54.86 56.56 57.67 58.37 58.94 59.47
54.54 54.24 53.47 52.50 50.63 56.91 54.73 58.80 59.45 59.70 49.52 48.15 50.71 53.61 54.46 54.74 50.18 54.89 55.56 53.27 50.69 46.85 49.01 47.38 50.60 49.01 47.57 46.08 47.90 44.09 49.07 48.08 46.39 46.53 42.45 48.85 39.95 47.50 51.36 51.92 53.45 55.68 57.52 58.54 59.79
54.18 53.57 53.01 52.62 58.45 55.10 61.54 64.18 62.62 60.75 37.09 49.37 50.76 56.67 54.74 51.57 51.88 52.41 56.40 52.80 48.87 48.59 49.31 47.32 48.63 47.79 46.69 47.85 49.56 46.93 50.65 48.93 48.28 47.13 45.87 46.02 42.93 41.31 51.20 50.08 51.88 54.44 56.28 58.18 60.01
53.82 53.49 52.97 52.66 55.20 59.44 62.67 64.07 62.17 47.55 36.52 46.00 50.50 49.68 50.15 50.64 50.50 52.86 51.76 54.30 53.30 49.50 49.77 48.86 52.39 50.76 50.08 50.36 50.30 51.19 49.13 48.66 48.12 46.56 40.59 44.21 43.34 43.86 48.69 50.69 52.73 55.04 56.73 58.84 60.31
53.48 53.35 53.43 57.15 56.44 62.06 63.44 60.79 46.77 39.73 48.00 44.61 46.17 49.01 48.84 47.42 48.66 49.81 48.46 47.88 45.26 42.51 44.21 47.51 48.15 50.63 51.45 48.37 50.79 49.84 47.10 40.08 38.99 39.59 38.09 45.43 43.90 45.32 48.98 52.49 54.23 54.85 56.51 58.25 59.25
52.73 52.55 53.43 57.66 60.67 62.14 61.74 53.45 40.09 44.61 45.62 48.05 47.50 48.11 46.12 47.93 48.11 48.67 47.28 45.45 48.62 48.36 44.98 42.68 41.74 48.39 50.99 49.52 46.84 47.51 46.43 40.65 33.45 35.53 39.15 45.53 40.47 45.00 51.39 52.53 54.56 56.97 56.92 57.53 57.11
52.06 52.82 53.00 55.64 58.90 59.96 56.29 44.83 43.86 45.03 48.27 46.43 46.82 44.75 45.63 47.28 47.28 48.56 48.04 46.80 48.22 49.41 43.95 43.32 42.47 49.61 49.92 50.82 49.92 46.87 44.22 48.51 43.08 43.35 39.70 41.92 45.01 49.24 51.03 51.42 53.82 55.73 55.81 55.69 55.67
54.11 51.36 54.28 58.87 59.28 57.16 51.80 44.27 47.65 49.57 49.61 48.67 43.45 46.31 43.99 45.71 45.14 46.85 46.79 49.28 48.66 50.87 52.30 47.42 42.30 47.55 48.61 50.67 50.37 48.53 49.83 42.34 43.12 34.06 33.17 40.05 41.64 42.35 48.10 49.30 51.99 54.35 54.37 54.91 55.20
55.56 51.29 58.73 61.10 59.19 52.77 46.98 47.78 49.09 51.99 51.71 48.09 46.17 45.37 46.52 45.71 46.25 46.15 46.89 49.68 51.24 50.42 51.54 49.20 46.55 45.64 47.75 46.37 45.61 46.46 44.58 45.07 45.52 44.03 37.07 35.10 40.14 48.40 46.88 50.10 51.29 53.87 54.88 55.18 54.97
54.13 47.97 60.55 62.45 50.26 52.10 49.00 50.32 49.32 51.42 53.48 50.64 50.58 48.28 47.37 47.80 46.37 46.04 45.64 47.93 52.67 52.15 47.18 49.56 47.69 43.74 45.22 49.23 50.26 49.55 47.32 46.86 40.64 38.94 41.59 40.26 40.13 49.09 50.21 51.26 52.47 53.42 54.79 55.84 55.76
51.62 53.37 60.18 59.49 46.87 50.55 51.43 49.97 50.46 50.90 50.80 50.36 48.42 49.96 50.07 47.88 44.90 47.16 47.81 51.55 52.38 51.78 48.94 50.85 45.90 40.92 42.53 46.45 48.24 45.54 47.35 47.17 45.51 44.35 39.64 37.77 40.47 49.48 50.06 50.16 51.91 52.90 54.41 55.06 55.60
53.11 48.84 52.72 52.82 54.99 51.05 48.91 48.35 47.75 52.46 51.19 51.86 49.73 51.46 50.36 48.42 50.36 47.91 48.68 50.00 51.59 52.06 45.50 49.38 47.19 44.21 40.33 43.39 46.89 44.11 45.04 46.48 45.07 40.60 40.76 41.57 42.58 45.94 47.65 48.39 50.16 51.95 53.90 55.08 55.32
53.86 50.54 53.57 47.98 51.21 51.70 50.99 48.99 46.96 47.35 52.03 53.14 50.88 50.03 48.96 46.24 47.99 47.91 50.67 49.08 50.39 46.65 49.50 50.70 44.55 46.19 46.75 45.96 45.17 44.92 44.85 45.43 43.67 44.08 41.59 42.94 42.12 44.91 47.03 48.16 49.76 51.65 52.31 53.16 54.20
51.46 51.78 54.31 52.98 52.66 50.83 47.63 47.70 47.48 49.10 50.58 49.84 49.26 50.11 50.79 48.22 49.06 47.06 50.43 50.01 49.03 50.94 50.50 50.77 45.17 45.27 42.97 45.88 44.92 43.23 45.04 44.65 45.03 45.10 44.18 44.26 43.61 48.60 50.17 50.39 50.06 50.48 51.42 51.60 52.63
57.44 57.44 55.51 49.38 51.78 49.13 49.16 48.29 48.61 51.62 52.44 52.89 51.66 51.45 49.87 51.75 54.68 54.68 54.80 53.82 53.04 51.12 49.70 48.46 45.94 42.01 38.53 42.15 42.54 37.62 43.01 44.91 45.23 46.36 45.63 42.53 46.48 49.73 48.66 48.45 49.53 50.35 51.09 51.20 51.88

GFSSW_sfc_wetblb_012.txt.gz
Wetbulb
58.32 58.56 57.98 57.25 57.97 57.07 58.05 57.77 57.41 57.40 57.67 57.96 57.59 57.11 56.21 56.35 54.99 54.97 52.03 56.73 58.73 61.47 59.31 57.12 54.96 54.56 55.31 52.73 53.26 51.82 44.54 43.34 45.80 47.48 51.49 53.74 51.85 56.74 58.95 56.66 58.92 58.92 55.81 59.34 66.71
58.37 57.78 58.38 57.18 57.75 57.32 57.05 57.26 56.89 57.03 57.40 57.48 57.16 56.46 56.41 55.81 53.00 52.90 59.05 62.64 62.25 61.78 55.49 54.51 52.22 52.64 51.36 51.13 51.45 47.84 44.99 46.30 54.33 55.49 53.46 53.38 51.72 53.28 55.35 54.57 57.65 59.44 57.75 59.65 65.57
58.35 57.67 58.02 57.96 56.58 57.11 56.90 56.55 56.32 56.66 56.99 57.26 56.70 55.89 55.75 54.40 53.68 57.34 63.25 62.00 61.77 60.55 55.82 56.11 54.89 52.78 49.36 50.72 50.40 48.73 45.32 49.89 52.28 53.25 53.87 53.71 53.32 57.18 55.12 52.09 54.28 55.26 60.64 64.24 64.17
58.18 57.76 57.56 57.44 56.56 56.25 56.28 55.84 56.10 56.26 56.78 56.82 56.05 55.10 55.39 54.18 48.27 59.21 63.69 62.09 61.88 58.67 55.88 55.12 52.59 49.74 48.13 47.91 50.87 46.49 48.91 50.63 53.08 53.94 53.34 53.80 56.23 51.66 52.64 52.44 54.39 57.43 62.14 63.41 63.10
57.83 57.67 57.31 57.11 56.95 56.61 55.62 55.70 55.48 56.05 56.43 55.88 55.31 54.36 53.91 53.74 55.18 62.44 63.09 61.32 57.39 57.98 55.69 53.12 50.63 50.06 47.88 49.74 49.79 47.80 49.53 50.99 52.05 52.73 53.41 54.93 53.53 52.24 52.25 55.67 58.11 58.37 62.28 62.53 62.93
57.62 57.21 56.51 56.85 56.84 56.53 55.22 55.49 55.35 55.76 55.85 54.91 54.21 53.59 52.82 49.74 60.24 63.23 60.57 58.16 55.90 55.50 54.95 53.90 52.25 52.98 50.37 49.38 48.37 49.98 50.19 49.07 50.69 51.68 54.95 52.14 52.30 54.07 55.30 58.38 59.61 60.06 60.43 61.74 62.36
57.51 57.09 56.35 56.47 56.28 55.81 55.53 55.43 55.39 55.64 55.19 54.13 53.26 53.41 52.89 52.80 60.52 62.76 59.36 56.56 57.73 56.35 54.05 54.92 55.02 52.49 52.57 50.63 52.47 51.05 47.68 47.75 50.80 51.50 52.23 53.53 49.75 51.37 57.52 59.28 58.23 58.20 59.02 59.81 60.78
57.84 57.00 55.74 55.83 55.52 54.85 54.89 55.06 55.04 54.26 54.06 52.84 52.84 54.48 51.55 60.50 61.04 59.26 61.29 59.07 58.84 58.35 57.04 57.44 57.59 54.65 52.46 53.57 50.54 47.18 47.38 42.37 49.69 51.31 51.94 50.14 44.95 52.04 57.74 56.99 56.46 56.93 57.59 58.28 58.87
57.31 56.72 55.80 55.28 54.69 54.16 54.75 54.33 53.74 53.53 53.29 53.01 53.29 54.37 52.63 59.80 56.73 58.36 59.06 56.80 57.52 58.27 58.14 57.08 55.28 52.71 52.42 47.78 44.96 46.33 41.77 44.61 45.92 51.17 48.85 46.73 45.87 51.68 57.10 56.59 55.52 56.76 57.46 58.12 58.15
56.96 56.78 55.67 55.01 54.30 54.04 54.20 53.59 53.94 52.42 52.42 55.85 56.10 52.16 56.86 53.56 56.26 57.18 58.68 57.37 55.34 55.73 53.61 52.65 51.23 48.93 48.65 45.78 38.61 41.42 41.71 44.69 44.30 47.89 46.58 45.55 47.12 50.70 54.32 52.94 51.45 56.62 57.59 58.19 58.22
56.88 56.59 55.55 54.85 54.38 53.67 51.93 53.73 51.78 50.76 53.83 51.78 53.87 52.46 53.58 55.96 58.01 55.97 56.69 54.85 55.30 53.41 48.07 51.24 46.76 44.24 46.63 48.20 47.71 46.52 44.72 43.72 46.03 47.42 45.76 47.06 47.26 49.54 52.38 55.56 55.75 56.34 57.27 58.07 58.82
56.43 56.07 55.34 54.79 54.34 53.72 53.74 53.14 57.69 59.21 53.05 54.90 51.97 55.42 56.39 57.07 52.27 53.86 56.75 51.77 51.88 48.11 49.73 47.61 44.25 48.56 49.61 48.69 47.51 46.50 44.72 43.60 46.02 47.52 46.58 46.25 46.48 49.18 51.72 52.58 54.63 55.78 56.85 57.63 58.75
55.84 55.42 55.09 54.18 53.89 52.62 53.56 54.47 60.13 59.26 53.36 54.63 52.29 51.99 54.28 55.36 51.64 51.46 54.31 52.59 49.82 47.58 47.59 45.43 46.88 49.86 48.52 47.36 45.82 45.65 44.68 44.78 44.27 45.87 47.14 47.56 45.49 47.42 50.87 53.04 54.04 55.24 56.79 58.09 58.49
55.22 54.71 53.96 53.12 50.56 56.24 54.20 58.07 58.17 59.22 47.69 49.42 50.41 53.13 54.73 54.56 50.38 54.21 55.17 52.45 50.15 46.62 48.13 46.10 50.45 48.48 47.06 45.71 46.37 43.36 48.91 47.28 46.34 44.70 39.85 47.55 38.34 43.91 49.23 49.93 52.77 54.69 55.87 56.66 58.05
54.55 54.10 53.07 53.00 56.84 55.01 61.29 62.49 63.09 61.02 36.24 50.37 50.69 57.06 54.60 50.84 51.55 51.20 55.41 52.95 48.32 47.87 49.19 46.11 47.63 46.99 45.82 46.97 49.38 45.68 49.29 47.90 47.00 45.04 45.12 44.34 41.13 44.21 47.31 48.18 50.80 53.90 55.98 57.54 58.92
54.08 53.80 53.11 52.90 54.38 57.13 60.40 63.32 62.54 47.32 35.75 46.34 50.58 49.61 49.16 50.20 50.22 51.86 51.50 53.54 52.44 49.02 49.83 47.72 51.75 50.26 49.03 50.11 50.27 50.92 47.52 48.07 46.63 45.11 38.78 42.26 41.10 40.88 44.35 47.12 51.02 53.22 55.52 57.22 58.40
53.80 53.68 53.36 56.99 55.13 61.36 61.00 60.08 45.96 37.87 48.32 45.28 46.52 48.68 48.01 47.21 47.83 48.92 48.25 46.43 45.02 42.58 43.31 45.83 46.98 50.42 51.06 46.83 49.59 48.35 45.53 38.59 36.53 37.41 36.70 44.80 42.06 43.94 47.75 50.77 50.38 50.81 54.90 57.15 59.08
53.22 52.90 53.38 56.00 59.60 61.04 60.12 52.27 38.77 43.81 44.96 47.96 47.44 47.78 45.38 47.46 47.34 47.34 46.13 44.08 47.35 46.40 43.92 41.83 40.33 47.17 49.79 47.44 45.36 46.52 44.16 39.68 29.58 30.36 36.43 44.56 38.90 43.75 51.80 53.25 52.69 55.31 56.71 58.33 58.91
52.54 53.21 52.68 54.92 57.52 59.40 53.75 43.38 42.47 45.82 47.94 46.90 46.57 44.33 44.48 47.08 46.55 46.90 45.88 44.75 46.55 47.53 42.65 41.35 41.26 49.62 49.91 50.02 48.87 44.60 42.96 47.59 41.54 41.73 39.12 41.06 43.35 46.63 50.70 50.45 52.09 55.10 56.04 56.59 57.54
52.81 51.07 51.12 57.14 58.47 55.23 50.00 43.82 46.95 50.70 49.40 48.65 42.90 45.46 42.73 45.15 44.27 45.37 45.65 48.06 46.59 49.42 51.65 45.05 38.06 47.48 49.07 50.24 49.87 47.60 48.61 42.46 43.41 33.73 31.64 37.92 40.37 42.22 47.07 48.61 50.40 53.54 54.50 55.65 56.61
53.77 48.15 56.89 59.70 58.03 51.37 44.98 46.57 49.52 52.12 50.91 47.83 45.52 44.58 45.35 45.39 45.34 45.11 45.70 48.61 50.45 49.76 50.65 48.86 45.52 45.18 47.85 45.67 43.79 45.71 43.62 44.76 44.01 43.37 36.98 34.88 38.79 47.31 47.10 49.41 50.84 52.53 55.38 55.42 55.71
52.86 44.23 58.62 59.41 46.70 46.68 46.14 49.33 49.88 50.83 51.95 50.55 49.77 47.68 46.33 47.65 45.48 45.02 45.04 48.58 52.53 50.97 46.94 49.18 46.89 43.68 44.38 48.94 49.73 48.31 46.76 45.16 41.15 38.32 42.86 40.31 39.16 49.33 49.68 50.04 52.17 52.52 54.97 55.94 55.97
48.88 51.10 59.05 58.11 41.88 45.38 48.83 49.71 50.89 50.10 50.28 50.16 48.23 49.92 49.80 47.54 44.78 46.50 47.10 52.76 53.33 50.69 48.10 49.58 45.41 40.33 42.04 46.44 48.75 45.45 45.78 46.94 46.76 45.54 39.96 37.41 39.59 49.38 49.13 49.07 50.64 51.86 53.26 55.42 55.69
49.96 44.88 51.65 53.92 51.56 48.27 47.59 47.33 47.60 52.46 50.52 51.16 49.60 50.59 48.36 46.82 48.94 46.42 47.21 50.66 52.55 51.94 46.86 51.75 46.62 43.16 39.27 42.44 46.25 44.18 44.71 45.27 44.91 40.45 39.93 39.61 41.55 45.61 47.63 48.18 49.70 51.06 52.21 53.72 54.97
52.06 48.46 51.48 43.63 48.06 49.85 51.09 49.47 47.02 46.61 51.19 52.00 48.86 48.16 48.47 45.62 46.86 46.42 49.10 49.95 50.90 47.00 49.94 50.10 43.39 44.98 45.21 46.30 46.39 45.59 44.71 44.94 42.97 44.09 39.52 42.88 42.44 45.41 46.96 48.42 50.03 51.44 51.97 51.71 51.96
49.38 49.51 53.32 50.36 50.67 49.62 48.75 48.54 47.46 48.03 49.45 48.73 48.54 49.37 49.86 47.54 47.82 46.41 48.72 50.12 48.34 50.53 49.59 50.73 45.01 46.28 44.25 46.19 46.00 43.55 45.45 45.28 44.58 44.55 44.23 44.13 43.61 48.16 50.08 50.03 49.23 49.54 50.24 50.95 50.84
53.78 55.94 53.07 48.68 49.40 49.06 49.32 49.74 48.96 50.64 51.70 52.27 51.01 50.10 49.08 51.68 53.97 54.68 54.94 54.35 53.06 50.60 49.19 49.29 47.15 43.17 39.34 42.40 41.87 36.44 43.01 44.31 45.47 46.00 45.21 41.38 46.20 48.87 48.21 48.56 49.48 50.08 50.41 50.69 51.12

GFSSW_sfc_wetblb_015.txt.gz
Wetbulb
58.70 58.35 58.58 58.30 57.20 56.71 56.39 56.21 56.41 57.00 57.11 57.34 57.55 57.49 57.17 56.62 55.31 52.28 48.62 53.26 54.10 58.84 59.93 53.40 52.25 51.77 51.53 48.23 48.62 46.56 38.23 36.39 44.12 46.75 47.31 52.73 51.30 53.24 57.28 55.99 56.65 56.56 55.14 61.46 61.19
59.06 58.55 58.22 58.28 57.20 56.18 55.98 55.98 56.03 56.38 56.65 57.07 57.10 56.87 56.62 55.80 50.69 49.63 55.92 60.68 60.96 61.87 53.31 51.15 50.03 49.08 45.11 46.08 45.96 42.85 37.35 39.60 51.01 52.63 50.90 52.76 51.61 52.95 53.38 53.20 53.69 54.27 59.06 62.49 62.49
59.33 58.73 58.14 58.12 57.69 56.16 55.81 55.51 55.12 56.21 56.46 56.61 56.90 56.63 55.74 54.29 49.54 55.10 63.19 61.14 62.04 60.01 53.34 52.52 52.43 49.21 45.04 46.33 45.26 43.36 40.67 47.07 50.13 51.09 53.06 51.05 52.51 55.01 52.18 49.86 54.09 52.93 55.39 60.09 62.27
58.74 58.20 58.03 57.84 57.62 56.54 55.46 54.74 54.77 55.54 56.16 56.44 56.41 56.34 55.27 51.49 45.64 55.22 63.09 62.42 62.39 56.64 53.79 51.35 50.34 45.98 44.31 42.74 45.90 41.99 46.13 47.05 51.17 51.89 51.92 51.17 53.16 53.05 50.41 51.93 56.74 57.25 59.38 58.90 60.31
57.94 57.69 57.81 57.35 57.41 56.67 55.27 54.62 54.56 55.26 56.01 56.28 55.95 54.97 51.26 49.69 52.79 61.26 62.18 62.09 56.43 54.90 52.10 51.48 50.51 47.73 43.77 45.04 45.85 45.11 45.98 48.81 52.45 52.86 52.53 54.53 51.58 50.39 50.12 52.86 56.50 58.20 60.56 60.01 60.82
57.63 57.46 57.23 57.20 56.90 56.61 55.51 55.15 54.85 55.25 55.54 56.09 55.32 54.55 48.87 47.28 59.55 60.70 57.84 55.44 53.78 53.38 52.92 52.82 49.72 49.85 47.62 46.81 44.80 47.70 46.73 45.39 47.25 50.61 51.89 50.55 50.45 52.32 50.40 53.88 54.23 57.65 57.65 60.67 60.48
57.62 57.28 56.91 56.61 56.26 56.18 55.41 55.04 54.76 55.04 55.50 54.92 54.15 51.67 49.35 48.75 56.97 56.92 57.62 53.42 52.85 52.96 51.06 53.26 51.97 50.41 49.56 47.34 51.21 48.58 43.93 44.52 48.14 50.01 49.93 51.07 47.24 48.93 53.33 54.49 53.77 54.70 58.03 59.75 59.28
57.90 57.28 56.58 55.67 55.41 55.08 54.57 54.39 54.85 54.94 54.76 54.37 53.59 49.89 47.30 59.12 56.13 56.05 55.54 53.81 54.43 54.64 53.99 54.79 54.21 51.50 49.35 50.09 48.80 44.93 44.27 38.94 47.10 49.31 51.06 49.17 41.56 51.63 54.98 55.24 53.07 53.63 54.67 57.52 56.65
57.62 56.93 56.24 55.34 54.73 54.47 54.18 54.45 54.61 54.60 54.36 53.70 48.94 48.83 49.19 59.96 55.72 57.04 56.32 56.02 55.52 55.91 55.11 56.13 52.27 48.23 49.17 43.68 41.20 42.91 37.14 42.38 44.53 49.25 47.22 45.14 42.29 51.87 53.89 54.09 51.74 52.07 52.71 53.72 54.18
57.19 56.75 56.22 55.18 54.55 53.77 53.65 54.10 54.21 52.91 52.50 52.72 52.11 46.83 52.47 52.73 56.41 56.29 55.75 55.51 53.54 53.42 52.10 50.52 46.11 43.51 43.20 40.56 35.75 37.74 40.31 40.29 42.21 44.64 45.17 40.70 42.05 50.34 51.69 51.45 51.92 51.79 51.42 52.72 53.08
56.96 56.66 56.22 54.92 54.43 53.61 51.82 49.97 47.30 47.55 48.34 47.93 49.53 49.90 52.55 55.33 55.84 53.64 54.79 53.38 52.67 50.48 43.21 46.46 40.78 38.74 42.91 44.77 45.74 44.55 41.98 41.62 42.57 46.01 42.42 42.16 43.22 46.17 48.29 49.31 50.84 51.20 54.84 53.59 52.77
56.69 56.26 55.75 54.79 54.12 53.98 50.47 48.26 51.98 52.22 47.20 53.38 51.50 51.92 54.00 55.32 51.05 52.61 54.07 48.93 48.80 44.72 46.43 44.12 40.15 46.11 48.42 47.74 45.40 44.19 41.95 41.47 43.91 43.93 41.57 41.16 42.06 45.13 48.07 48.76 49.65 51.92 53.23 54.59 53.38
56.29 55.69 55.16 54.18 53.68 52.25 49.25 50.59 55.02 53.91 47.06 53.02 54.72 51.93 51.22 54.10 50.62 50.18 51.39 49.38 47.16 45.69 45.95 42.35 45.58 49.55 48.25 46.00 44.01 44.04 43.30 41.20 41.59 42.30 41.90 43.11 42.04 44.92 48.22 50.28 51.93 53.13 53.11 55.62 54.72
55.60 54.96 54.00 53.14 50.16 51.22 49.65 54.54 53.91 52.71 41.71 47.58 50.64 49.76 51.47 52.53 48.95 53.31 52.59 49.83 47.67 45.08 46.42 45.37 48.15 47.43 46.26 44.85 44.60 40.87 46.58 46.04 44.39 42.09 35.48 41.28 32.17 42.36 46.49 46.92 48.82 51.80 53.17 54.18 54.54
55.02 54.37 53.09 53.49 50.99 51.12 56.58 57.19 54.99 53.12 31.22 47.93 48.66 54.91 53.21 49.74 49.63 50.06 52.86 50.39 45.63 47.84 45.89 44.52 46.28 45.85 44.61 45.28 47.04 43.06 46.61 45.46 45.36 41.23 41.64 41.13 37.33 39.20 43.69 44.63 47.34 48.23 50.50 50.87 55.50
54.72 54.13 52.93 52.06 51.22 51.79 54.83 55.36 57.89 43.14 31.35 46.35 49.73 48.23 47.69 48.90 48.68 49.74 48.94 51.50 49.88 46.24 47.06 45.43 48.82 47.19 46.39 48.72 47.55 48.71 45.52 44.55 43.29 39.74 32.91 40.50 38.14 38.23 41.39 44.97 47.89 50.09 51.69 52.97 54.45
54.30 53.89 52.67 53.88 50.32 56.10 54.08 54.43 40.26 32.35 46.82 44.23 44.68 47.73 46.52 45.41 46.45 47.05 45.65 43.74 40.39 38.13 39.47 44.56 44.55 49.02 49.87 44.93 47.37 46.45 41.28 33.03 31.25 30.39 29.19 42.55 40.03 40.43 45.36 47.90 48.64 50.25 50.70 51.05 53.96
53.66 52.89 52.99 53.06 55.41 56.30 55.16 49.53 36.16 41.97 42.84 47.85 46.62 46.46 43.24 45.55 44.96 45.62 43.95 40.55 43.27 42.72 39.17 38.87 36.31 44.36 47.69 44.32 42.85 43.39 40.70 33.47 27.36 27.55 33.66 41.34 36.57 40.54 48.64 50.20 51.58 51.91 50.37 51.35 53.53
53.03 52.35 52.16 51.91 53.19 53.90 51.51 41.10 37.37 43.94 45.48 45.76 45.14 42.09 41.95 45.01 44.26 43.63 41.76 40.87 42.89 43.71 38.07 38.38 40.36 47.61 48.81 48.80 46.57 43.26 38.14 43.02 37.07 38.07 34.07 37.97 41.32 45.91 47.96 48.18 49.35 48.85 48.64 51.21 53.39
51.24 50.42 49.73 53.50 54.10 52.33 46.16 40.63 44.37 48.86 49.36 47.21 41.40 42.97 39.45 42.26 42.72 42.11 41.89 44.80 43.87 45.77 47.59 43.95 38.33 45.25 47.37 49.15 47.21 44.44 45.19 36.48 36.36 28.10 26.40 32.63 34.80 37.21 43.43 45.25 48.19 47.51 48.76 51.94 53.19
51.04 46.63 50.89 54.67 54.22 49.18 39.93 42.03 46.65 51.06 50.56 47.30 44.15 42.10 42.63 42.22 43.52 41.47 42.75 45.68 46.60 47.27 48.56 44.87 42.58 41.88 46.03 43.87 41.02 41.70 39.45 40.08 39.80 34.44 27.71 26.26 32.09 41.50 42.91 44.64 46.24 48.88 51.63 52.62 52.48
50.19 41.98 51.50 54.86 43.71 43.89 39.66 45.10 47.56 49.26 51.45 49.55 48.28 45.61 43.33 45.20 42.71 41.56 42.33 46.71 51.24 48.44 44.54 46.02 42.51 34.43 41.42 46.68 47.01 44.42 42.23 41.55 29.99 31.76 31.83 29.32 32.33 44.16 43.85 44.29 46.06 47.07 51.99 52.71 53.18
46.65 47.08 53.61 51.32 36.64 38.73 42.47 45.33 48.60 48.47 48.37 47.74 47.12 47.68 47.61 44.97 41.38 42.91 45.90 50.26 50.75 48.39 44.94 45.96 38.81 29.70 35.67 42.09 45.32 41.59 42.93 43.01 42.75 35.77 31.76 25.57 31.30 44.47 45.00 43.75 45.04 44.32 47.59 51.33 51.94
47.37 41.35 48.55 49.49 46.12 41.69 40.25 42.02 44.11 50.50 49.37 50.13 48.28 48.56 45.67 44.40 46.12 43.49 45.24 49.80 50.33 48.32 45.79 47.81 42.68 36.46 30.60 37.16 42.09 39.45 42.28 42.36 40.29 29.80 30.34 31.51 37.15 41.41 42.25 43.50 44.89 44.90 44.88 47.88 50.24
47.60 42.13 47.96 42.27 43.67 43.45 43.73 44.10 43.85 44.89 49.53 50.14 46.52 46.47 44.68 39.80 42.96 42.15 46.38 47.01 49.38 47.03 47.03 45.40 38.04 39.68 41.82 44.08 44.38 42.68 42.93 42.54 38.97 39.42 33.18 36.77 39.13 42.19 42.13 42.66 43.35 45.85 46.36 46.44 47.11
44.74 43.98 47.61 44.20 46.28 44.45 43.21 43.53 44.43 46.08 47.37 46.05 45.86 46.33 45.50 42.55 44.64 42.47 46.46 45.84 44.67 46.34 44.32 45.76 37.71 38.30 36.82 43.29 42.26 39.61 41.82 41.88 41.74 41.48 39.78 39.89 38.88 43.12 44.89 44.39 44.47 44.99 45.73 46.16 46.66
46.75 49.57 48.76 45.39 44.35 42.68 41.97 45.74 45.93 48.09 49.01 49.36 48.50 46.70 44.59 47.84 49.39 49.99 49.66 49.59 48.88 45.37 42.78 42.20 36.80 33.41 31.44 37.12 36.40 29.44 37.19 40.77 41.82 42.69 40.79 35.29 40.40 43.35 43.05 44.32 43.31 43.84 45.58 45.82 46.61

GFSSW_sfc_wetblb_018.txt.gz
Wetbulb
59.47 58.89 58.58 58.37 57.91 57.15 56.21 56.32 55.55 55.72 56.35 56.41 56.95 57.45 57.26 56.53 55.01 51.30 47.15 52.25 52.63 58.83 58.69 51.81 50.45 49.61 48.69 45.45 47.14 43.89 36.79 33.94 37.63 46.11 47.62 52.17 50.95 53.13 56.07 54.35 54.72 56.40 58.12 60.01 62.05
59.83 59.29 58.73 58.30 57.68 57.14 56.50 56.24 55.20 55.45 56.38 56.49 56.76 57.11 56.66 55.68 50.34 48.63 54.84 59.00 59.59 61.32 52.34 49.55 48.03 47.31 43.23 43.22 43.98 42.37 36.65 38.08 44.70 50.82 48.91 50.03 51.67 53.19 53.27 52.87 53.48 55.58 58.47 60.97 60.71
59.76 59.23 58.67 58.26 57.78 57.37 56.41 55.85 55.43 55.01 55.67 56.15 56.58 56.75 55.78 53.98 48.72 53.60 61.63 59.98 60.92 60.99 51.82 51.67 50.65 47.82 42.72 43.36 42.71 41.76 39.77 44.07 50.17 50.08 51.81 50.37 51.17 53.89 52.10 50.08 52.65 53.75 56.85 58.91 58.88
59.02 58.63 58.37 58.30 58.03 57.37 56.28 55.42 55.41 54.96 55.72 56.29 56.31 56.02 55.08 51.01 43.72 52.28 62.92 62.35 62.69 55.96 52.42 50.23 48.21 44.36 42.26 41.91 44.14 40.91 44.97 45.55 49.71 51.91 50.24 50.87 53.25 52.45 51.57 52.51 55.87 58.83 57.96 59.53 57.89
58.07 57.81 57.79 58.04 57.73 57.00 56.36 55.42 55.55 55.56 55.68 55.85 55.86 55.11 50.09 48.03 50.44 59.85 62.59 62.30 56.67 53.88 50.61 49.09 48.86 47.09 42.87 43.68 43.14 42.74 44.92 45.87 50.21 51.38 51.19 53.71 51.34 49.48 48.68 53.49 57.19 59.40 59.84 58.37 57.36
57.86 57.40 57.16 57.41 57.15 56.65 56.14 55.37 54.98 55.04 55.27 54.90 55.05 54.06 48.81 44.66 57.88 59.57 57.58 54.21 52.76 51.58 50.87 50.20 49.84 48.72 46.01 45.45 43.44 46.53 45.68 44.60 50.56 50.90 51.53 50.64 50.35 49.53 49.56 53.80 55.44 57.26 58.38 58.21 57.54
58.15 57.27 56.91 56.87 56.60 56.16 55.77 55.12 54.45 54.80 55.34 55.03 53.97 51.42 47.86 45.06 57.20 56.74 55.83 51.87 51.39 51.74 49.52 51.51 51.51 48.93 48.69 46.28 49.09 48.66 42.70 45.58 47.40 48.74 48.74 50.87 46.30 47.86 51.35 53.74 55.21 56.23 57.70 58.93 57.92
58.63 57.51 56.44 56.14 55.53 55.10 54.88 54.43 54.17 54.90 54.94 54.60 53.37 48.91 43.92 56.16 54.42 53.93 53.95 52.43 53.12 52.55 51.97 52.63 52.62 49.92 48.37 48.71 47.50 44.01 41.52 38.30 45.87 49.35 48.74 48.39 42.75 50.68 52.47 52.34 51.51 53.17 56.38 58.26 59.17
58.40 57.32 56.15 55.63 55.00 54.39 54.33 54.15 54.11 54.82 54.72 54.47 48.12 48.09 46.44 57.72 55.25 56.87 54.85 52.82 52.75 52.38 52.32 54.41 50.67 46.89 47.43 42.26 39.13 39.99 35.26 39.79 43.03 48.68 48.72 45.63 43.99 50.95 52.70 52.94 51.29 52.67 55.33 55.62 57.12
57.96 57.26 56.22 55.41 54.63 53.96 53.46 53.82 53.72 52.98 51.96 52.56 50.99 43.81 49.49 50.81 55.55 55.34 54.28 55.21 52.91 51.52 50.57 48.88 44.33 41.96 41.93 39.54 33.46 36.51 39.07 39.21 40.34 44.70 46.61 44.04 43.39 50.36 50.74 50.59 49.69 50.03 51.23 52.78 55.19
57.54 57.28 56.30 55.40 54.47 53.51 51.62 49.20 47.47 47.32 47.20 44.49 45.31 46.41 49.06 53.47 55.22 53.46 53.88 52.40 51.64 48.67 42.39 45.13 39.74 37.18 40.34 41.93 43.52 43.27 41.41 40.62 40.67 44.37 42.19 41.24 44.04 47.12 48.73 50.15 49.35 51.24 52.12 52.47 54.90
56.99 56.77 56.01 55.04 54.14 53.51 50.43 46.76 49.59 49.45 44.78 51.39 51.51 50.92 52.88 53.12 48.07 51.52 52.90 47.85 47.59 43.01 44.34 41.63 37.84 43.46 45.26 46.62 44.99 42.63 40.53 39.62 42.21 44.18 41.69 39.42 43.89 45.96 47.57 50.41 50.88 51.66 52.39 53.29 52.45
56.45 56.43 55.44 54.10 53.58 51.78 48.84 48.78 53.79 52.46 44.58 49.89 52.93 52.18 53.18 51.54 48.13 49.66 50.67 47.76 45.83 43.57 43.30 39.83 42.96 47.38 47.20 44.79 42.76 41.39 41.03 40.25 39.95 40.44 42.10 41.55 38.67 42.72 47.81 49.69 50.43 51.68 53.89 54.33 53.42
55.75 55.59 54.03 53.22 49.38 50.39 48.82 53.49 53.49 51.48 40.23 44.64 49.64 52.20 50.19 50.16 46.98 52.48 51.50 48.71 45.23 43.12 43.84 42.33 46.03 45.46 44.72 43.49 43.34 38.05 44.83 44.33 43.09 39.05 34.31 38.71 31.18 39.79 43.96 45.22 49.62 50.41 50.58 49.91 52.55
55.27 54.78 53.11 53.04 50.40 50.27 54.02 54.15 53.32 51.92 25.55 45.30 49.39 53.54 49.65 47.98 48.26 48.63 51.63 48.22 43.73 45.03 44.36 41.80 43.98 43.23 43.73 43.61 45.49 41.85 44.47 43.38 43.55 38.83 36.54 37.57 35.06 39.19 42.17 42.24 46.37 48.76 50.94 50.75 53.03
54.75 54.34 53.07 51.76 50.48 50.48 52.81 54.57 55.16 38.47 28.81 44.88 47.75 46.48 45.97 47.40 47.57 48.03 47.73 49.45 48.28 44.96 44.59 42.65 47.08 46.38 45.75 47.65 46.68 46.51 43.54 42.87 40.45 37.93 30.01 37.78 35.30 34.16 39.31 44.45 45.33 46.66 51.55 52.07 53.25
54.57 54.20 53.13 53.21 48.39 53.72 55.10 54.96 41.85 33.74 44.80 43.30 43.22 46.24 44.90 44.22 45.20 45.37 43.96 42.26 39.57 36.47 37.43 41.97 42.76 46.32 48.27 42.91 45.87 44.15 39.25 31.79 29.74 27.85 27.29 40.28 36.61 37.78 43.39 45.82 46.80 46.86 47.77 51.84 52.72
53.93 53.11 53.42 52.91 52.56 53.53 54.34 48.27 34.07 39.71 41.51 46.78 45.09 45.10 42.09 44.13 43.72 43.87 41.60 39.17 41.40 40.76 37.23 36.49 34.44 43.29 47.40 43.32 40.17 41.83 39.08 30.80 26.08 25.57 31.13 39.24 33.91 39.54 46.78 47.93 48.84 48.02 48.82 50.19 52.19
53.32 52.63 51.82 52.58 52.02 53.39 50.10 39.37 35.60 41.29 44.48 43.33 44.15 41.00 40.59 43.46 43.05 41.90 40.60 39.80 42.03 41.84 36.99 35.93 37.47 45.61 46.87 47.03 45.18 40.97 36.77 41.03 34.40 34.46 31.31 34.54 40.40 41.34 46.50 45.99 46.15 47.02 47.72 49.14 51.21
50.36 50.12 50.57 52.85 52.70 51.22 45.38 38.08 42.09 47.58 47.83 45.40 39.50 41.78 37.66 40.23 39.98 39.58 39.58 42.65 42.22 43.50 45.53 42.09 36.39 44.96 46.35 47.13 46.04 42.57 43.03 35.31 34.40 28.18 26.91 31.60 33.22 35.24 41.53 44.11 46.09 46.10 46.24 47.63 51.51
48.78 45.04 51.30 53.66 52.56 45.76 40.04 38.72 43.48 49.18 49.10 45.83 43.00 41.07 41.05 39.99 41.13 39.56 40.39 43.35 44.43 43.80 46.26 43.76 39.33 39.39 44.62 42.70 41.87 40.33 37.97 38.05 37.92 32.32 27.53 25.53 31.16 39.33 42.11 44.67 45.06 46.54 47.65 47.82 51.76
46.50 40.43 51.51 52.98 41.85 41.81 40.43 43.01 44.13 46.43 49.63 48.35 47.27 44.77 41.24 41.71 40.80 40.23 40.62 43.93 48.52 47.03 42.78 44.49 40.28 32.03 40.00 45.78 46.67 43.17 40.51 38.81 29.14 30.68 29.55 27.69 31.88 42.93 42.47 43.46 45.90 46.76 48.54 49.97 52.78
42.76 44.60 51.74 50.33 36.53 36.08 41.79 43.58 44.71 44.55 46.46 46.77 45.28 46.47 45.66 42.52 38.93 41.66 43.21 48.05 49.77 46.91 43.88 43.99 37.65 29.41 35.01 40.11 43.05 40.25 41.30 41.52 39.06 32.64 30.17 25.27 30.75 42.92 41.99 42.46 44.09 44.57 48.00 50.57 51.32
44.03 38.50 45.32 46.96 44.01 38.75 38.70 40.30 40.46 46.04 45.79 47.96 47.26 47.21 44.25 41.80 44.19 42.72 43.92 47.73 49.08 48.19 46.02 45.89 39.36 34.87 30.10 35.54 39.85 37.19 40.63 40.59 38.87 29.06 30.18 30.22 35.51 40.66 40.85 41.60 42.60 43.48 44.03 47.88 49.65
44.37 41.44 43.10 37.27 39.99 40.30 40.56 41.10 39.30 39.39 47.20 48.21 45.60 46.08 43.49 38.48 40.30 40.53 44.78 45.39 47.19 45.44 46.43 43.50 37.09 38.30 39.26 41.44 41.57 40.20 40.00 39.95 37.86 37.02 32.24 35.88 36.34 40.27 41.56 40.78 42.30 43.50 44.33 46.03 48.00
41.25 43.36 44.17 42.12 42.33 40.28 39.77 38.92 39.09 41.00 43.78 44.10 44.23 45.81 44.13 40.42 41.86 41.56 44.84 43.55 42.72 44.62 42.84 43.57 36.12 36.62 35.56 39.72 39.82 37.35 39.60 39.35 39.77 39.50 38.36 37.90 37.38 40.27 41.82 42.02 42.56 43.23 44.62 44.09 44.02
45.46 47.85 46.04 41.55 41.49 39.62 39.93 40.08 40.50 42.63 45.61 46.47 46.67 45.40 41.88 44.48 46.67 47.02 48.19 47.35 46.55 43.83 41.11 40.12 35.46 31.84 30.79 34.46 34.56 29.26 35.65 38.67 39.80 40.42 40.21 33.97 38.10 40.85 40.97 42.51 41.60 41.75 43.90 43.82 44.79

GFSSW_sfc_wetblb_024.txt.gz
Wetbulb
59.42 59.62 59.58 58.92 58.29 57.67 57.27 56.94 56.55 56.14 55.59 55.43 55.57 56.06 56.33 56.53 54.96 49.54 45.24 51.33 51.95 58.21 57.56 49.78 48.13 46.94 45.46 43.25 42.63 39.77 34.19 30.45 33.45 39.87 43.20 50.07 48.25 50.72 55.86 55.18 56.32 58.49 57.89 60.77 61.86
59.90 59.89 59.70 59.22 58.01 57.54 57.38 57.05 56.34 56.23 55.91 56.10 55.77 55.95 56.59 55.91 49.71 47.09 53.75 57.51 58.62 59.15 49.00 47.02 44.19 44.27 41.57 40.25 41.69 38.99 32.86 35.12 39.27 41.22 45.42 47.81 48.38 50.93 52.44 53.63 54.68 57.77 60.92 61.59 61.31
60.19 59.72 59.46 59.09 58.16 57.86 57.43 56.62 56.20 55.92 55.70 55.42 55.55 55.85 55.98 53.74 46.92 49.77 60.83 59.19 59.76 58.58 49.03 49.16 47.83 44.90 39.61 40.21 39.13 37.14 36.34 39.29 41.48 45.62 49.80 47.97 49.11 51.99 51.43 49.77 53.95 56.11 58.07 60.26 59.84
59.86 59.48 59.06 58.78 58.40 57.80 57.11 55.97 56.08 55.84 55.32 55.21 55.56 55.69 55.50 49.69 41.19 48.09 62.66 60.60 60.98 55.58 49.73 46.70 45.35 41.64 39.05 38.29 41.75 38.22 42.10 42.30 43.51 47.94 49.28 49.13 51.35 50.36 50.01 51.86 57.14 58.09 58.58 59.11 58.38
59.04 58.85 58.61 58.68 58.46 57.54 56.70 55.95 55.79 55.39 55.00 55.03 55.36 55.19 50.18 42.10 44.17 57.43 61.99 61.24 56.45 51.58 48.35 45.93 45.08 43.34 40.20 40.72 40.09 39.67 42.10 43.27 43.89 49.72 49.47 51.47 48.73 48.32 52.15 56.03 58.06 58.39 58.09 57.70 57.82
57.89 58.61 58.19 58.12 57.70 57.25 56.68 55.73 55.28 55.06 54.66 54.96 54.91 53.98 47.21 38.23 53.39 57.84 56.39 53.59 51.91 49.15 47.44 46.81 46.60 47.13 43.90 42.91 40.65 43.41 43.84 43.14 46.38 49.21 50.45 48.67 47.95 49.87 54.05 56.46 55.22 56.14 55.60 56.82 55.45
57.07 58.13 58.01 57.80 57.41 56.76 56.30 55.55 54.92 54.66 54.59 54.78 54.44 50.69 45.85 42.87 53.14 53.44 53.84 50.70 51.00 49.37 46.76 48.64 48.98 45.60 45.27 43.14 46.06 44.74 41.64 44.02 45.72 48.01 49.05 49.72 44.72 47.19 54.72 55.45 54.51 55.20 55.79 55.88 55.55
56.30 56.90 57.35 57.25 56.64 56.08 55.45 54.92 54.56 54.76 54.60 54.47 53.66 48.74 42.64 50.52 51.53 52.67 51.90 51.08 50.27 50.91 49.02 49.47 49.25 46.53 44.44 45.63 44.55 41.16 41.56 39.83 44.33 47.34 48.53 45.85 40.90 48.46 55.09 54.37 54.13 54.87 55.62 54.66 55.18
55.33 55.57 56.63 56.47 55.73 55.18 54.76 54.52 54.43 54.70 54.51 54.31 47.63 47.69 42.53 53.00 49.35 53.52 52.88 50.68 50.11 49.35 49.31 51.94 47.91 43.58 44.19 39.44 36.05 37.14 34.14 37.73 41.10 46.52 47.04 45.27 42.72 47.83 53.27 54.55 53.06 54.68 54.88 53.97 54.62
54.76 55.24 55.67 56.37 55.73 54.64 53.60 53.68 53.47 52.30 51.98 52.15 49.99 41.18 44.71 45.62 51.11 52.49 51.93 51.75 49.80 49.02 47.27 45.91 42.22 39.38 38.83 36.49 31.33 33.14 34.38 34.46 37.89 41.80 44.00 43.43 43.64 46.96 51.07 52.80 52.72 52.49 54.89 54.56 54.55
54.70 55.31 55.49 55.69 55.81 53.80 50.97 47.30 43.84 45.04 47.13 44.54 41.98 40.76 43.74 50.19 52.93 49.62 51.76 50.62 49.12 46.09 40.37 42.01 37.95 35.36 37.64 39.58 39.88 38.97 36.26 35.56 38.85 42.91 43.22 41.90 43.54 45.38 48.66 48.94 49.10 50.31 52.83 54.85 55.73
54.41 54.11 54.45 55.59 55.55 53.31 48.33 44.34 46.64 47.38 42.88 48.04 48.29 46.92 49.04 51.89 48.56 49.36 51.65 46.65 44.84 40.57 41.22 39.80 36.07 40.88 41.93 41.71 41.15 40.19 37.13 35.92 39.58 41.32 39.85 38.93 41.21 44.51 46.45 49.07 49.27 50.46 51.97 53.84 55.45
53.26 53.31 53.53 55.21 53.88 50.67 46.38 47.84 52.35 50.35 42.35 45.15 48.87 48.58 49.80 51.57 47.41 47.26 48.69 45.83 43.00 40.84 40.23 37.48 39.87 43.37 43.11 40.46 39.83 39.12 37.74 37.29 38.29 38.61 39.04 39.62 38.22 43.27 46.32 47.26 48.61 49.97 52.03 53.33 54.06
52.62 52.75 52.70 53.95 49.66 48.96 46.68 53.17 52.96 50.07 35.46 40.72 45.81 49.40 50.55 50.71 45.30 50.41 49.16 46.38 42.42 40.61 40.86 39.36 42.62 42.27 41.12 40.03 40.83 37.97 42.40 40.01 39.01 35.60 31.66 36.25 29.45 36.88 43.20 44.87 46.26 48.58 49.18 51.44 52.34
52.19 52.51 52.44 53.49 48.07 47.65 51.85 52.21 51.72 49.31 22.61 41.93 47.52 53.37 50.06 45.79 45.79 46.66 49.09 45.75 41.08 40.91 40.86 39.12 40.54 40.29 39.38 40.93 42.56 40.20 42.44 39.84 39.33 35.99 34.90 34.02 31.94 34.38 39.36 42.73 46.10 47.30 49.04 50.71 52.05
51.89 52.55 52.57 52.61 51.10 49.67 52.34 53.18 53.09 36.99 24.06 37.97 46.39 44.25 43.29 43.91 44.40 44.72 45.36 46.78 44.97 41.30 41.15 40.59 42.92 42.19 41.77 43.31 43.17 43.42 41.45 39.45 37.32 35.20 28.57 33.35 32.55 32.79 36.19 43.84 47.85 48.64 48.05 50.25 50.23
51.69 52.21 52.90 53.74 49.22 51.65 53.74 52.23 41.17 29.56 39.79 38.12 41.85 42.39 40.43 40.18 41.93 42.72 41.20 39.98 37.57 34.23 34.08 38.38 39.74 43.00 44.43 40.22 42.25 40.98 37.13 30.10 28.74 27.23 26.89 36.21 33.33 35.84 40.90 42.45 45.25 46.84 48.62 49.06 51.10
50.83 51.14 51.52 52.73 53.06 50.71 53.26 45.10 32.43 36.76 37.90 44.08 42.91 40.77 38.25 40.22 40.59 41.00 39.24 36.57 37.63 37.78 33.96 34.00 32.15 40.02 43.76 40.97 39.06 38.00 37.00 29.24 25.27 24.14 28.88 35.40 31.05 36.76 42.36 43.22 44.72 45.13 45.25 46.03 48.20
50.05 48.42 47.00 51.02 53.41 51.22 47.22 35.56 35.76 39.00 43.24 41.68 41.85 37.24 36.99 39.95 39.87 39.55 37.96 37.04 38.99 39.76 35.17 32.54 33.85 41.56 43.78 44.13 41.93 37.77 33.92 37.24 31.46 30.33 28.42 30.27 35.49 39.54 40.61 42.73 43.31 43.01 43.93 43.55 46.12
45.54 45.30 43.72 52.33 53.51 50.19 42.95 36.75 38.86 44.61 46.52 45.13 37.45 39.94 35.01 37.21 37.81 37.84 36.50 39.67 39.39 41.16 41.37 38.46 33.02 40.37 42.56 44.28 43.37 39.78 41.03 32.96 31.23 26.83 25.23 28.45 29.06 31.98 38.51 41.24 43.27 43.43 43.67 45.14 46.73
44.82 40.14 43.60 53.98 52.78 45.63 36.34 37.70 40.99 45.90 46.82 43.95 41.96 40.04 38.05 37.60 38.08 35.92 37.22 39.63 41.59 39.86 41.38 39.36 36.49 35.34 41.04 38.98 38.51 38.04 35.67 34.75 34.83 30.33 26.11 23.07 28.66 37.56 39.27 41.04 40.89 41.87 44.33 44.59 46.72
43.38 33.35 49.74 52.58 41.66 41.58 36.87 39.88 43.04 43.83 46.35 45.07 44.90 43.88 41.52 38.94 37.24 36.96 36.98 40.71 43.05 42.84 39.18 41.15 36.55 29.35 36.88 40.58 42.62 39.40 37.84 36.07 29.12 29.12 27.56 25.71 28.48 39.52 39.78 40.36 40.10 41.85 43.62 44.00 45.55
39.08 39.88 49.90 48.58 34.34 36.42 40.05 40.51 42.15 42.04 42.23 43.25 42.56 44.62 43.13 39.02 35.56 38.40 38.87 42.94 43.62 42.00 39.94 41.28 33.84 27.46 32.10 36.36 38.93 36.84 38.20 37.68 34.74 30.68 28.64 24.10 29.45 39.64 39.67 40.22 41.22 40.90 41.98 44.22 45.96
40.03 32.72 42.02 44.10 40.98 37.66 37.05 37.43 37.86 45.04 42.84 43.61 42.77 44.67 42.56 40.26 39.92 37.51 38.68 43.80 44.55 43.20 44.67 43.59 36.04 32.81 30.32 32.45 36.55 34.15 36.96 37.09 35.86 28.03 28.97 28.74 33.17 37.96 39.45 39.42 40.42 40.65 39.57 42.18 45.51
40.00 34.61 39.95 33.93 36.26 37.67 38.67 38.80 36.88 37.77 43.55 43.86 40.29 42.00 41.03 36.76 36.69 37.38 40.71 42.44 43.56 44.48 42.14 41.12 34.31 34.27 35.50 37.27 38.00 37.75 37.59 36.21 35.10 34.71 31.49 34.31 33.24 38.01 38.89 39.55 39.48 39.55 41.06 44.59 45.52
36.91 36.55 41.38 36.61 38.42 37.78 39.20 37.07 37.31 39.18 41.32 39.63 38.92 41.23 41.93 39.32 39.42 36.76 41.03 40.18 40.29 41.51 40.08 39.64 34.26 33.31 32.77 36.61 36.74 35.02 37.29 36.53 35.81 35.24 34.66 34.62 34.53 38.70 37.86 37.50 38.16 39.57 41.13 41.78 42.67
41.17 42.22 41.08 37.73 37.18 35.26 36.10 37.90 38.49 41.14 41.96 43.23 42.21 40.67 39.01 41.84 44.53 44.12 43.51 43.59 42.48 41.14 38.55 36.69 33.39 31.11 30.58 31.53 32.63 29.13 33.91 36.35 36.31 37.08 37.60 32.85 37.55 38.39 37.23 38.61 38.06 39.76 40.86 40.34 40.22

GFSSW_sfc_wetblb_030.txt.gz
Wetbulb
60.68 60.62 60.45 60.19 59.44 58.82 58.44 58.03 57.67 57.29 56.99 57.07 56.99 56.57 56.69 56.75 55.75 55.67 54.22 57.75 57.63 59.19 57.40 55.76 54.80 54.52 54.52 52.29 53.13 52.17 46.44 46.60 44.70 45.27 47.55 53.89 54.42 58.81 59.72 57.71 59.99 61.06 61.95 60.78 60.54
60.17 61.21 61.01 60.43 59.41 58.75 58.25 57.98 57.31 57.21 57.17 57.01 56.81 56.75 56.81 56.40 54.79 53.66 57.79 58.47 58.96 60.28 55.95 53.49 51.78 52.83 51.80 51.33 52.67 49.99 46.64 45.23 48.06 48.84 48.47 52.03 54.60 56.86 57.14 57.27 57.93 58.84 59.22 59.64 60.01
57.89 58.72 59.42 60.53 59.65 59.04 58.24 57.53 57.06 57.17 57.05 56.79 56.59 56.86 56.28 56.03 52.72 56.26 58.94 59.52 60.26 59.80 55.35 53.71 53.05 51.80 49.67 51.19 50.46 49.92 46.59 49.19 49.49 49.81 50.27 50.97 53.14 56.95 56.51 54.14 57.51 56.55 57.13 58.24 58.42
56.61 56.84 57.43 58.70 59.66 59.22 58.19 57.16 57.10 57.15 56.71 56.33 56.08 56.56 55.91 55.62 45.64 57.79 62.13 60.49 60.62 59.13 55.28 52.97 52.22 50.05 48.67 47.77 50.20 46.97 49.87 49.63 50.12 50.94 52.15 53.60 55.27 53.83 55.99 56.90 60.78 60.22 58.76 58.18 58.57
55.34 55.99 56.37 57.31 58.62 59.19 58.02 57.18 56.84 56.74 56.32 56.01 55.85 55.85 55.00 50.78 49.46 61.03 62.93 60.72 59.30 56.67 53.97 52.70 51.61 51.14 48.55 49.81 49.89 48.31 49.65 50.25 51.44 50.76 54.25 55.88 54.32 54.81 56.03 58.85 61.77 60.03 59.32 58.02 58.14
55.19 55.39 56.31 56.98 57.66 58.29 57.99 57.23 56.47 56.33 56.15 55.84 55.71 54.92 52.33 46.51 57.38 61.83 59.92 58.89 56.95 55.79 54.15 53.99 52.93 53.36 51.08 50.32 49.35 50.82 50.64 50.90 51.28 53.30 55.01 53.50 54.09 55.33 56.18 59.73 58.78 58.63 57.83 58.12 57.13
54.79 54.98 55.22 55.71 56.08 56.97 57.71 57.19 56.29 55.89 55.93 55.67 55.40 53.95 50.44 49.98 57.72 60.74 59.13 57.39 57.24 55.59 53.15 54.13 54.62 53.07 52.81 50.06 52.28 51.23 48.48 50.63 51.17 54.28 53.26 54.85 51.65 53.22 57.70 59.08 57.91 57.34 58.88 59.47 59.64
54.83 54.48 54.45 54.30 54.59 55.40 56.21 56.39 55.89 55.83 55.64 55.49 54.60 53.23 49.35 54.23 56.92 58.21 58.48 56.38 56.75 56.74 54.87 55.32 55.51 54.11 52.41 53.22 51.03 48.44 47.74 46.30 50.94 53.12 53.79 53.49 47.67 55.24 57.67 57.46 56.76 57.84 58.60 59.14 60.08
53.14 53.88 54.10 53.75 54.31 54.81 55.46 55.95 55.48 55.02 54.53 54.33 53.34 52.33 48.17 54.89 52.40 55.41 58.94 54.93 55.43 55.39 55.43 54.55 55.00 52.71 52.11 48.36 46.70 47.62 43.37 45.07 46.78 52.78 53.01 52.91 49.50 55.67 57.45 56.95 56.26 56.94 57.25 57.74 58.42
52.42 53.58 53.76 54.10 54.37 54.50 54.92 54.45 55.12 53.41 54.60 54.79 53.34 49.07 51.68 48.31 52.71 55.59 56.94 56.66 54.40 54.06 52.24 51.97 52.92 49.78 49.10 46.75 41.34 42.74 43.45 45.27 45.82 50.97 51.95 50.77 50.74 55.27 57.21 56.78 55.12 56.93 57.35 57.52 57.64
52.80 53.03 53.43 53.94 53.43 54.77 55.22 57.78 53.21 50.75 52.09 51.06 50.55 49.76 47.26 52.54 56.80 55.34 56.33 54.23 54.72 53.37 49.43 51.78 48.01 45.05 46.55 47.70 47.55 46.57 44.99 44.08 47.32 50.07 49.78 49.44 49.80 53.52 56.69 56.98 56.42 57.08 57.13 57.39 57.71
53.00 52.40 53.00 53.01 52.74 54.39 56.32 52.99 52.21 52.34 46.97 53.05 52.04 51.99 53.42 52.75 50.38 53.84 57.55 51.45 51.54 48.36 50.43 47.88 45.30 47.93 48.52 47.78 46.82 46.74 45.02 44.56 47.15 48.19 47.85 48.42 48.23 52.74 56.01 56.60 57.45 57.92 58.57 58.36 59.00
52.89 52.64 52.82 52.26 52.89 53.79 54.91 54.64 56.72 56.12 49.01 50.09 52.73 51.14 51.37 52.57 49.74 51.43 54.75 53.11 50.43 48.23 48.21 46.63 47.27 49.14 47.78 47.23 45.90 46.58 45.20 44.80 44.40 46.51 47.72 47.59 45.87 49.66 54.21 56.89 57.49 58.58 59.44 60.05 59.32
52.35 52.27 52.33 51.98 50.83 54.60 52.93 56.68 57.19 56.40 43.28 43.38 46.06 50.15 51.74 52.11 48.28 54.42 55.42 52.88 49.76 47.32 48.47 48.11 49.37 47.07 47.12 45.96 47.30 44.13 48.36 46.36 45.39 44.18 41.08 46.42 39.38 46.05 50.62 52.99 55.21 56.56 57.90 59.30 59.93
52.02 51.93 52.17 52.04 51.22 52.46 54.55 57.79 57.35 54.54 29.88 44.78 47.57 55.18 52.92 49.06 49.52 50.42 55.56 52.00 47.70 47.57 48.13 45.78 46.76 46.45 45.86 46.21 48.53 45.41 48.76 47.13 46.70 45.19 43.78 43.16 41.34 45.35 48.89 49.78 52.69 55.88 57.58 59.18 60.44
51.71 51.62 51.73 50.71 50.60 54.17 57.09 57.90 54.98 42.37 30.85 41.36 48.66 47.48 47.04 48.77 48.51 50.60 50.72 52.74 51.99 48.42 48.72 47.94 50.01 49.22 48.37 48.91 49.07 49.52 47.53 47.12 46.96 45.81 38.55 42.61 42.23 43.23 45.88 48.37 50.27 54.19 56.65 58.51 59.85
51.06 51.47 50.42 50.32 46.61 55.54 56.69 53.47 40.58 34.23 42.76 40.58 44.25 47.12 46.39 44.74 46.22 47.26 46.53 46.03 44.65 41.88 42.70 46.16 46.59 49.14 49.68 46.88 48.67 48.41 45.62 39.32 37.67 37.92 36.65 43.28 41.52 43.93 48.19 49.76 51.39 52.08 54.26 57.97 59.61
50.74 50.67 50.90 49.93 52.02 53.30 52.60 45.44 32.35 38.26 40.45 45.76 45.69 46.23 43.26 44.74 45.38 46.08 45.57 43.80 47.44 46.24 43.89 41.40 39.68 46.33 49.95 48.11 46.11 46.67 45.60 39.59 31.84 34.08 37.99 42.51 38.93 44.72 49.85 51.66 52.77 53.71 54.26 54.96 57.62
50.41 48.47 49.64 51.36 52.79 51.01 46.23 35.33 34.48 39.75 44.01 43.52 43.92 42.35 43.22 43.83 44.27 45.09 44.83 43.85 46.20 48.02 42.62 41.75 41.39 47.67 49.14 49.89 48.89 45.56 43.14 47.02 41.11 40.84 38.65 41.47 43.66 48.02 49.40 49.26 52.28 53.21 53.80 54.79 55.88
47.45 44.77 46.01 52.13 53.40 46.59 39.33 36.11 38.93 44.55 46.28 45.70 40.03 43.22 41.08 42.69 41.62 43.82 43.92 46.33 45.90 48.48 49.84 45.74 40.54 46.46 48.40 50.03 48.93 47.90 48.96 41.45 43.06 33.66 31.92 38.64 39.66 41.89 45.15 46.91 49.28 50.10 52.09 53.98 56.10
46.20 38.26 46.28 52.15 51.21 40.61 32.63 37.69 41.25 46.04 47.55 46.04 43.41 42.94 43.30 42.86 43.39 42.58 42.89 44.52 48.29 47.77 49.52 47.70 44.90 43.87 47.42 45.95 45.24 45.25 44.43 44.46 44.61 42.23 35.84 34.05 39.27 47.67 46.90 48.46 48.88 50.48 51.48 53.74 55.45
43.20 33.67 47.82 51.19 36.53 38.68 34.77 40.25 42.82 43.32 48.17 47.40 47.95 46.45 44.90 44.24 43.39 42.70 41.73 44.66 48.88 49.65 45.22 48.56 45.56 40.69 42.69 47.64 49.34 48.77 46.24 46.36 40.80 38.73 41.32 39.63 39.70 49.18 50.25 50.75 50.76 51.55 51.04 52.97 55.54
37.20 38.81 47.74 48.09 31.63 33.33 39.32 39.91 42.61 42.45 44.02 45.80 45.64 48.17 49.08 45.44 41.79 43.93 43.88 48.46 48.82 48.36 46.91 48.11 43.59 38.61 40.21 43.84 46.87 45.42 46.99 47.08 45.59 44.25 39.72 38.39 40.57 49.09 50.04 50.60 51.63 51.52 52.29 51.83 52.58
38.24 32.24 39.37 41.57 42.02 37.94 36.88 36.21 37.98 43.90 43.70 46.86 46.65 48.43 46.74 45.25 46.12 42.77 43.29 45.37 48.08 49.05 47.31 48.51 45.28 41.60 37.58 40.67 44.71 42.73 44.70 46.29 45.27 40.72 40.75 41.25 42.65 46.59 48.87 49.72 51.26 52.01 52.04 52.04 53.78
38.79 35.99 39.26 31.43 36.89 38.61 40.99 39.41 37.00 37.23 43.84 45.84 44.44 45.43 45.26 41.83 42.95 41.78 43.22 45.41 45.77 45.78 48.23 48.82 42.06 43.93 44.05 44.60 44.58 43.78 43.57 44.52 43.06 43.91 40.93 42.89 43.81 46.68 48.63 50.39 51.46 50.60 50.52 51.67 53.21
35.38 38.48 42.38 38.83 38.80 36.79 38.52 37.93 36.57 39.17 40.49 40.82 42.12 44.87 46.21 42.80 43.30 41.44 44.26 43.94 44.86 47.19 47.18 48.80 42.49 44.58 41.92 44.55 43.69 42.18 44.14 44.47 44.38 44.47 44.20 44.99 44.92 50.04 51.24 51.32 49.78 48.98 50.80 51.31 51.88
42.67 45.22 43.20 38.64 37.61 35.79 37.52 38.39 38.83 41.11 42.88 44.13 43.28 42.11 41.84 43.55 46.73 48.00 47.35 47.15 47.36 46.71 45.98 45.83 44.22 41.51 38.08 42.57 41.88 37.07 42.48 44.10 44.84 46.08 45.57 43.03 47.60 50.42 49.53 49.64 50.04 50.49 51.02 50.25 49.69

GFSSW_sfc_wetblb_033.txt.gz
Wetbulb
59.42 60.51 61.18 60.83 60.35 59.65 59.31 58.67 58.18 58.02 57.63 57.77 57.50 57.30 57.44 57.11 55.81 58.83 56.62 58.23 59.51 59.02 57.52 57.62 56.95 56.16 56.09 53.91 54.23 53.70 47.59 46.48 46.41 46.60 48.60 53.31 53.89 59.55 61.28 58.55 60.71 62.92 61.88 61.12 61.34
57.91 58.48 59.28 59.79 60.06 59.54 59.24 58.76 57.99 57.91 57.80 57.59 57.33 57.18 57.14 56.54 56.52 55.80 58.62 59.58 59.09 60.06 57.16 53.89 52.78 54.45 52.58 52.64 53.39 50.50 47.88 46.88 50.04 50.42 49.84 53.40 54.76 56.38 57.23 58.42 58.67 56.97 59.05 60.20 60.58
56.26 56.79 57.50 57.91 58.87 59.41 59.26 58.57 57.99 57.99 57.73 57.43 57.11 57.04 56.42 56.28 55.64 57.25 59.28 60.15 59.94 60.61 57.73 54.83 54.67 52.85 51.38 52.17 52.03 51.31 47.91 50.73 51.21 51.58 52.89 51.98 54.02 56.52 55.67 50.81 50.94 56.67 56.72 58.69 60.04
55.13 55.07 54.97 56.58 57.76 58.52 58.85 58.27 58.06 58.13 57.77 57.35 56.83 57.00 56.45 57.86 46.83 60.61 60.68 60.61 60.72 60.21 56.16 53.85 52.71 51.15 50.61 49.18 51.55 48.54 51.00 51.27 51.96 52.29 53.81 54.24 54.31 50.84 57.64 55.60 57.61 59.19 58.88 59.23 59.15
55.50 55.15 54.85 54.94 56.17 57.73 57.82 58.17 57.95 57.84 57.36 56.93 56.77 56.42 56.90 53.32 52.98 63.74 62.03 60.40 58.56 57.83 54.79 52.60 52.13 52.82 50.06 50.31 51.38 49.77 50.94 51.68 52.86 52.50 55.53 56.54 55.78 55.77 57.23 59.75 61.26 59.49 59.02 59.36 59.41
54.91 54.99 55.26 54.74 55.15 56.43 56.98 57.53 57.47 57.25 57.03 56.82 56.68 55.40 55.07 49.04 57.55 62.35 60.74 58.08 57.28 56.72 55.76 55.55 54.38 54.92 52.68 51.48 50.95 52.32 51.80 52.03 52.19 53.26 55.47 54.04 55.22 56.67 58.27 61.36 58.97 59.82 58.61 57.61 58.07
53.22 54.66 54.78 55.03 54.88 55.04 55.53 56.59 56.65 56.95 56.85 56.72 56.19 56.02 52.32 52.27 57.68 61.29 60.35 58.47 58.03 57.57 55.26 56.42 56.05 54.27 54.85 51.49 53.50 52.33 49.74 51.40 52.13 53.80 53.30 54.60 48.92 53.75 59.56 60.44 58.03 57.91 58.88 57.37 58.01
53.68 53.94 54.08 54.43 54.16 54.18 54.73 55.24 55.98 56.73 56.39 55.94 55.68 55.56 50.34 57.68 58.07 59.11 60.89 57.80 58.31 58.14 56.48 57.22 56.91 55.15 53.98 54.93 52.22 49.76 50.49 45.81 52.44 53.60 54.58 52.20 43.56 56.72 60.03 58.62 57.16 58.16 57.83 58.96 59.68
53.89 53.34 53.59 53.54 53.71 54.00 54.61 55.24 55.94 56.61 55.40 54.73 55.25 54.20 50.31 55.99 52.91 57.16 60.58 55.88 56.49 56.98 57.12 56.04 55.70 53.64 53.83 49.30 47.26 48.78 44.06 45.77 49.08 52.59 53.80 52.12 43.13 56.57 59.48 57.79 56.21 57.32 58.18 58.77 59.69
53.49 53.33 53.15 53.46 53.67 53.41 53.63 54.79 56.78 53.90 55.04 57.33 56.48 51.29 54.03 50.92 53.96 54.37 61.02 58.37 55.01 55.18 53.36 53.18 52.84 50.21 49.97 47.78 41.24 44.04 44.72 46.93 46.29 50.22 51.99 50.85 50.80 56.18 58.06 57.57 56.86 57.03 57.06 57.13 57.96
53.24 53.24 53.08 53.05 53.53 52.66 54.28 57.98 54.43 53.26 54.96 50.52 52.40 50.51 50.25 53.85 56.52 53.76 58.72 57.41 56.44 54.38 49.34 53.13 48.86 46.15 47.86 48.99 48.33 48.47 46.59 46.07 48.44 51.76 49.89 50.06 49.74 53.42 57.05 57.37 56.38 56.86 56.55 56.82 57.25
53.36 52.82 52.91 52.86 53.16 52.60 54.99 53.16 53.41 54.95 47.40 52.62 53.09 53.60 55.81 54.26 51.66 52.99 56.88 53.42 52.45 49.34 52.03 50.46 46.37 49.71 50.67 48.88 47.56 47.55 45.91 45.95 48.40 49.62 48.77 48.73 49.30 51.62 55.80 56.68 57.50 57.13 57.08 57.80 57.56
52.42 52.97 52.60 52.61 52.72 52.27 53.74 54.65 58.92 57.81 48.46 49.60 52.56 52.17 52.23 54.15 50.10 51.39 55.23 53.65 50.85 49.07 49.71 47.54 49.14 50.91 48.24 47.48 46.56 46.67 45.89 45.46 45.44 48.47 49.51 48.37 47.32 49.13 53.33 56.63 58.08 58.34 58.67 58.44 58.34
51.85 52.09 52.07 52.24 49.45 51.98 52.98 57.68 59.40 58.53 43.34 44.23 48.80 52.01 53.34 53.00 49.12 54.12 55.60 53.47 51.07 48.05 49.34 48.70 51.39 48.43 47.43 46.86 47.66 43.90 48.74 47.63 46.09 45.35 41.05 48.69 40.57 46.76 50.30 52.69 55.75 57.45 58.00 58.06 58.42
51.90 51.52 51.83 51.38 51.50 51.67 56.14 59.40 59.78 57.16 30.42 45.57 48.52 55.51 52.77 49.43 49.35 50.86 55.43 53.24 48.64 48.85 49.38 47.19 48.59 47.40 46.52 47.17 49.14 46.22 50.09 47.98 47.86 46.13 45.64 44.57 41.58 44.31 48.49 48.77 52.31 55.83 57.78 58.57 59.14
51.13 51.35 51.55 51.70 52.57 51.73 52.79 58.55 57.57 41.66 31.05 43.37 49.97 47.85 48.40 49.08 48.51 51.64 51.42 53.96 53.18 49.42 49.74 49.15 51.97 50.09 48.89 50.15 49.74 50.36 48.22 48.02 48.01 46.03 40.01 43.24 43.07 41.98 45.80 48.31 50.60 54.11 56.77 58.48 58.90
50.73 51.46 50.66 52.14 48.74 53.88 53.36 52.13 39.80 33.23 42.91 41.66 44.83 48.25 47.36 46.31 46.45 48.56 47.43 47.02 45.45 42.81 43.35 47.19 47.98 50.27 51.07 48.13 50.22 48.99 46.06 39.54 37.80 38.80 37.94 45.29 42.70 44.52 48.20 50.36 51.00 51.42 54.43 57.42 59.61
50.38 50.89 50.23 51.33 53.80 54.32 48.00 43.18 31.20 38.25 40.05 46.79 45.89 47.65 44.71 46.80 46.30 47.05 46.37 44.17 47.87 46.88 44.18 41.91 40.32 47.44 50.31 48.48 46.74 46.99 46.07 40.40 31.20 34.14 39.18 44.82 39.67 44.19 50.67 52.32 52.38 52.87 53.73 55.19 58.21
49.99 49.85 48.94 50.47 53.51 52.27 42.99 33.34 35.00 38.94 42.29 41.97 45.08 43.91 44.31 46.26 45.69 46.00 45.29 44.53 46.62 47.48 42.37 42.64 42.95 49.38 49.92 50.57 49.72 46.90 44.47 47.86 42.26 43.52 39.89 42.65 45.03 48.32 50.95 49.93 51.10 52.46 53.81 55.08 56.16
47.59 46.00 46.33 51.16 53.50 48.96 37.76 33.91 39.91 43.58 43.43 44.30 39.52 44.21 42.18 43.89 43.02 44.16 44.40 47.02 45.90 48.16 49.74 46.59 42.01 47.71 48.83 50.67 50.59 48.39 50.32 42.97 43.90 34.87 33.40 39.79 41.71 42.83 46.29 47.75 49.62 49.93 52.34 53.88 56.17
45.33 39.84 47.70 52.32 51.69 42.49 31.29 35.54 41.55 45.86 45.24 42.08 42.62 43.19 44.32 44.49 44.48 43.58 44.65 47.17 48.62 47.92 49.36 47.88 45.93 45.44 48.53 46.42 45.38 46.33 45.58 46.41 45.57 43.85 36.84 35.49 40.39 48.34 47.80 49.01 49.60 51.11 51.76 53.00 55.05
42.75 34.69 49.29 50.43 37.61 37.45 33.34 39.42 42.50 44.45 46.07 45.59 46.13 46.34 43.95 45.31 45.26 43.61 43.79 46.98 49.85 49.58 45.48 48.55 46.67 42.14 44.41 49.06 49.81 48.60 46.95 47.01 42.04 40.23 43.04 42.32 41.86 49.91 50.25 51.26 51.45 51.21 52.30 53.93 55.74
38.09 39.41 50.16 49.08 31.96 33.89 38.76 38.71 40.98 41.08 44.12 43.17 43.58 47.44 48.62 45.43 42.70 46.10 46.37 49.61 50.29 48.90 47.54 49.03 44.86 39.49 42.15 45.69 48.38 46.06 48.30 48.36 46.84 46.58 39.76 38.99 40.89 50.61 50.70 50.65 51.69 52.09 52.95 54.08 54.27
38.56 33.01 39.67 42.53 42.80 38.40 36.73 37.05 36.94 42.26 43.24 45.18 43.80 46.45 45.55 45.28 47.92 44.88 45.91 48.80 50.34 49.90 48.52 49.61 45.73 42.46 39.29 42.41 45.63 43.36 45.32 47.27 46.54 42.99 42.33 42.90 44.09 47.59 49.07 49.92 51.36 52.40 53.43 54.15 54.49
38.28 36.22 40.02 32.69 36.13 39.89 40.46 38.79 36.88 37.09 42.03 45.02 43.06 43.95 43.66 41.55 43.62 44.12 46.28 47.36 48.18 48.32 49.19 49.33 43.04 44.37 44.83 45.90 45.65 44.47 44.50 45.38 44.58 45.38 41.72 44.62 44.68 47.49 49.53 50.60 51.00 53.52 53.40 53.03 53.79
33.51 37.45 41.47 39.36 40.08 38.80 38.12 37.33 37.52 39.23 40.90 40.85 41.53 44.04 44.19 42.24 44.41 42.30 45.89 45.71 44.88 48.36 47.57 49.75 43.08 44.69 42.72 45.25 44.82 43.06 44.75 45.31 45.67 45.96 45.84 46.16 45.49 50.41 51.37 51.97 51.28 51.91 52.27 53.18 54.57
41.18 45.24 42.83 39.14 37.65 37.70 38.48 38.30 37.95 41.23 43.13 44.36 43.80 44.12 43.15 44.14 48.83 49.15 48.72 47.37 48.43 47.28 45.98 46.05 44.67 42.15 38.89 43.96 43.60 39.79 43.79 44.96 45.52 46.62 46.33 43.27 47.31 50.18 49.60 50.93 51.65 51.94 53.09 53.64 54.30

GFSSW_sfc_wetblb_039.txt.gz
Wetbulb
57.19 57.16 57.35 57.35 57.18 57.88 58.30 58.40 58.44 58.93 59.11 58.98 58.82 58.67 58.45 57.99 56.66 54.72 52.33 57.35 57.59 60.81 57.75 54.40 51.34 50.74 50.11 47.53 48.08 46.05 37.67 36.17 41.54 43.92 43.30 50.12 48.84 51.31 55.74 51.88 54.77 56.46 57.51 58.99 60.71
55.78 55.84 55.81 55.77 56.06 56.25 56.94 57.61 57.34 57.99 58.92 58.91 58.47 58.44 58.06 57.46 53.84 52.01 58.32 61.29 60.81 60.73 51.52 51.02 50.32 50.70 45.75 45.95 45.92 42.14 36.82 39.87 46.78 45.32 45.13 47.37 51.37 52.66 52.03 52.45 51.51 55.39 58.78 60.34 59.90
55.29 54.95 55.09 55.23 56.04 55.88 55.74 55.83 56.51 57.37 57.55 58.49 58.41 58.42 57.71 56.54 51.94 54.15 60.34 60.83 61.24 59.84 52.72 53.34 54.16 50.02 45.62 45.10 45.20 44.19 39.78 44.95 47.40 48.58 47.26 48.19 51.19 55.09 49.76 47.69 50.98 52.42 55.47 58.66 58.61
53.72 53.45 54.67 54.85 55.55 55.63 55.22 54.89 55.16 56.30 56.73 57.97 58.57 58.66 57.66 54.62 44.16 55.11 61.01 60.82 60.98 55.88 53.74 52.77 49.45 44.96 43.60 42.63 46.57 41.25 46.20 47.00 47.27 48.03 47.79 48.61 52.51 52.54 50.75 51.27 53.15 56.66 58.47 58.39 57.50
53.23 53.15 53.27 53.21 54.54 55.09 55.02 54.67 54.71 55.22 55.95 57.15 57.98 58.38 54.03 50.13 51.16 58.89 61.68 60.46 56.53 54.33 52.26 51.64 48.12 46.21 43.68 46.66 47.71 44.24 45.57 47.84 48.91 48.91 49.48 54.07 53.11 53.80 54.28 56.25 57.48 57.60 58.69 58.01 57.06
54.50 53.50 52.86 53.00 53.27 53.48 54.36 54.30 54.22 54.50 55.44 56.33 57.56 57.10 52.03 45.40 56.33 60.91 58.44 55.58 54.16 50.99 50.94 52.24 49.25 49.73 48.68 47.86 46.29 48.15 48.27 47.57 48.81 47.84 50.80 51.06 50.99 53.84 55.89 56.70 56.18 57.68 56.73 56.68 56.19
54.50 54.24 53.93 52.90 52.55 52.71 53.49 53.85 53.89 54.07 54.58 56.03 57.10 55.87 50.35 47.46 55.09 57.03 58.08 54.90 53.59 52.24 50.13 52.91 52.44 49.16 49.00 46.77 51.02 49.80 45.26 46.60 47.23 47.24 49.82 49.85 46.37 48.23 55.46 56.99 55.44 55.50 55.44 55.34 55.09
54.22 54.08 53.93 53.37 53.07 52.86 52.78 53.13 53.40 53.71 54.02 55.30 57.17 52.64 46.28 55.35 54.38 55.27 55.72 54.67 55.79 54.18 53.37 54.09 53.84 50.34 48.53 49.61 48.16 44.98 44.00 39.03 45.54 49.81 49.80 48.64 43.38 48.15 51.80 55.51 52.65 53.06 53.77 55.06 54.98
53.79 53.60 53.68 53.52 52.98 52.68 52.53 52.49 52.76 53.49 54.17 55.08 52.88 49.70 46.53 56.95 52.66 54.96 55.40 53.92 55.98 54.89 53.44 55.63 52.22 47.42 47.55 42.27 39.76 41.54 36.60 38.84 42.61 50.01 49.42 46.85 43.86 49.45 53.63 55.57 51.83 52.21 50.98 51.76 54.74
53.39 53.70 53.35 53.33 53.13 52.52 52.25 52.45 52.56 53.13 54.66 56.11 54.51 46.63 50.97 49.05 53.45 54.75 54.51 54.12 54.30 52.47 51.04 49.39 46.17 42.07 41.21 38.57 33.46 37.36 37.92 38.92 40.40 47.95 48.84 45.41 44.89 48.63 51.45 54.03 52.82 51.24 51.94 53.54 54.15
53.23 53.23 53.19 52.69 53.00 52.52 50.66 48.05 46.85 48.51 51.34 48.84 48.21 46.28 49.59 53.66 55.41 52.28 53.85 51.79 53.57 49.15 43.27 46.35 40.31 37.07 39.88 42.71 44.57 43.77 41.88 40.55 43.47 49.12 48.29 46.72 45.14 45.71 49.43 51.44 52.43 51.39 52.31 54.32 52.90
52.55 52.71 52.80 52.49 52.84 52.67 49.31 44.07 47.15 47.24 42.37 51.83 52.67 52.13 54.39 55.28 49.66 51.68 52.21 47.69 48.65 43.85 45.29 43.08 39.43 44.33 46.57 46.26 45.22 44.97 41.76 39.93 44.01 49.21 47.18 45.71 43.95 45.93 48.49 50.76 51.11 51.17 52.02 53.48 53.50
52.59 52.42 52.53 51.80 52.28 49.17 45.63 45.76 50.63 48.66 42.47 45.57 49.44 47.65 48.06 49.69 47.65 48.53 49.30 48.11 47.01 44.46 43.72 40.79 43.76 47.91 46.50 45.54 44.38 44.26 41.44 40.60 41.92 45.54 47.48 44.64 43.35 46.41 50.42 51.27 53.41 52.09 52.24 53.63 53.49
52.28 51.91 51.56 50.80 47.45 46.22 43.97 51.92 53.36 49.98 37.61 39.36 42.64 45.65 47.52 47.65 44.92 51.10 52.60 48.97 47.66 44.24 44.91 43.84 47.77 46.53 46.08 45.37 45.24 40.13 45.50 44.79 44.02 41.22 35.98 43.94 32.92 44.92 47.20 49.92 51.70 51.92 51.82 51.66 53.69
51.97 51.93 51.46 51.09 45.80 44.46 49.86 51.02 51.95 50.23 17.87 40.92 42.74 50.08 47.99 44.94 47.16 47.40 52.09 48.60 45.24 45.72 45.01 42.61 44.12 44.47 44.29 45.55 46.54 42.73 46.66 45.75 44.69 40.18 38.13 40.27 35.88 39.82 47.94 47.07 49.54 50.75 52.63 52.68 54.04
51.97 51.87 51.17 48.06 46.33 47.13 50.40 50.43 50.01 35.84 24.89 38.39 46.38 45.33 45.17 44.64 45.63 47.69 47.32 49.61 48.29 46.26 46.44 45.09 48.97 47.01 45.52 48.16 47.18 47.26 46.33 45.16 43.46 39.88 31.16 38.26 37.89 36.99 43.87 47.39 50.42 52.04 53.41 53.75 53.02
51.44 51.70 50.29 48.23 41.27 49.55 51.35 47.69 34.39 25.34 37.98 35.49 42.21 44.94 43.88 43.10 43.50 44.64 43.25 41.92 39.62 37.03 38.13 42.98 44.00 47.14 48.46 44.33 46.45 44.35 40.99 33.07 30.37 29.43 28.45 42.56 39.10 39.57 44.01 47.33 49.27 52.08 52.95 53.86 54.98
51.26 50.81 50.34 47.75 46.63 48.62 48.40 39.55 27.05 33.28 34.26 42.03 41.22 44.00 41.40 43.26 43.20 44.05 42.32 39.11 42.76 42.42 38.36 36.69 34.93 44.15 47.54 45.27 42.93 42.53 41.60 32.82 27.01 26.17 32.95 41.33 35.62 41.09 48.02 49.05 50.32 54.40 54.49 53.98 53.61
50.74 48.28 47.15 47.80 47.16 49.15 42.22 29.61 29.12 33.20 38.13 36.91 37.95 35.77 36.87 43.53 43.13 42.29 41.05 40.18 42.71 43.52 37.91 37.03 37.87 46.14 47.04 47.56 46.19 42.33 38.53 43.64 36.84 39.51 33.11 36.50 42.45 46.85 48.21 47.52 48.17 48.44 50.54 49.63 50.78
46.97 45.50 44.43 48.82 49.01 45.71 37.18 31.19 33.53 39.13 39.66 38.90 32.72 37.01 33.99 39.30 41.02 40.39 40.46 43.36 42.73 45.15 46.38 42.11 36.89 44.87 46.75 47.37 46.84 43.96 45.90 37.84 37.94 29.42 27.22 34.97 37.36 39.26 44.75 45.72 47.08 45.93 48.02 49.94 51.63
46.21 39.93 45.40 48.88 47.41 39.28 31.67 30.86 34.96 40.49 41.81 37.51 34.79 34.30 35.59 36.67 37.98 38.60 38.94 44.32 44.62 44.96 46.29 43.90 40.28 40.29 45.55 42.99 41.81 41.72 40.39 42.01 41.99 38.50 30.35 27.03 33.21 44.10 45.67 46.42 45.65 45.24 47.35 48.57 50.18
44.14 34.75 45.99 47.65 35.75 36.05 31.59 34.68 39.14 38.19 41.22 39.92 39.54 37.60 35.87 37.20 36.37 37.85 40.22 43.78 47.75 46.27 42.51 44.93 41.09 35.54 39.44 46.25 47.33 44.29 42.51 41.92 34.35 34.67 37.79 34.18 35.17 46.79 46.63 46.94 48.13 47.97 48.05 48.08 51.21
40.16 39.00 46.49 44.66 29.99 30.60 34.65 34.86 37.01 36.26 37.46 37.86 37.54 38.80 39.42 36.73 33.46 41.30 42.88 47.17 47.70 44.63 43.83 44.54 40.12 33.44 36.54 41.64 44.53 42.65 43.62 44.16 42.60 39.52 35.28 30.20 34.76 46.15 46.95 47.36 48.12 46.73 47.47 49.05 49.73
40.11 31.85 39.22 40.63 37.86 32.81 31.68 32.74 32.38 39.14 37.87 38.99 37.97 39.10 37.56 36.11 39.24 39.20 41.48 45.56 46.97 46.01 46.54 46.24 41.73 37.55 32.67 37.22 41.83 39.43 42.43 43.41 41.75 33.36 35.08 34.56 38.86 43.84 47.10 46.36 46.70 47.09 46.85 46.73 48.69
38.91 32.89 37.49 31.81 33.30 34.17 34.08 34.37 32.18 32.42 38.39 39.07 35.67 35.93 35.54 32.42 34.92 36.49 41.05 43.25 46.24 45.91 46.29 45.63 38.40 40.36 40.92 42.49 43.60 42.93 42.86 42.89 41.01 41.59 37.74 39.88 41.18 44.38 46.94 48.02 49.24 49.32 49.71 50.48 50.58
32.22 33.78 38.53 35.27 36.73 34.37 35.23 31.86 31.85 34.77 35.45 35.43 33.70 36.62 36.98 33.87 35.15 34.30 40.62 41.79 41.44 44.00 42.94 45.81 38.12 39.56 37.30 42.10 42.86 40.74 42.95 43.13 42.56 42.04 43.55 43.67 42.31 48.14 49.80 48.66 48.18 48.59 49.38 48.73 49.17
42.49 40.37 38.89 36.46 35.25 33.52 32.65 33.52 33.69 36.63 37.93 39.33 38.21 35.87 34.65 37.05 40.53 43.89 44.58 45.66 45.18 41.06 38.03 40.74 38.08 37.25 33.25 39.32 39.12 33.05 39.85 42.05 42.87 44.46 43.69 39.07 43.81 48.59 47.54 48.08 48.76 48.59 49.66 48.71 49.04